Flag for Norway Weather past 2 weeks in Harstad, Norway

Now
45 °F

Overcast.


Feels Like: 40 °F
Forecast: 43 / 48 °F
Wind: 9 mph from North

Location: Evenes

Current Time: Sep 18, 2014 at 6:42:22 AM

Latest Report: Sep 18, 2014 at 5:50 AM


Visibility: N/A

Pressure: 30.24 "Hg

Humidity: 81%

Dew point: 39 °F

Location of HarstadLocation

Historic Weather in Harstad — Graph

°F

Harstad temperature yesterday

Maximum temperature yesterday: 54 °F (at 11:50 AM)
Minimum temperature yesterday: 36 °F (at 4:20 AM)
Average temperature yesterday: 45 °F

Past Weeks' High & Low Weather Summary

 TemperatureHumidityPressure
High59 °F (Sep 6, 1:20 PM)100% (Sep 4, 10:50 AM)30.51 "Hg (Sep 4, 10:50 AM)
Low34 °F (Sep 16, 2:50 AM)39% (Sep 16, 4:50 PM)29.74 "Hg (Sep 9, 6:50 AM)
Average50 °F84%30.10 "Hg
* Reported Sep 3 5:20 AM — Sep 18 5:20 AM, Harstad, Weather by CustomWeather, © 2014

Note: Actual official high and low records may vary slightly from our data, if they occured in-between our weather recording intervals... More about our weather records

Advertising

Harstad weather history for previous 24 hours

 ConditionsComfort  
Time TempWeatherWind HumidityBarometerVisibility
5:20 AM
Sep 18
45 °FOvercast.9 mph81%30.24 "HgN/A
4:50 AM45 °FOvercast.8 mph81%30.24 "HgN/A
4:20 AM45 °FMostly cloudy.8 mph87%30.27 "HgN/A
3:50 AM45 °FOvercast.7 mph87%30.27 "HgN/A
3:20 AM45 °FOvercast.7 mph87%30.27 "HgN/A
2:50 AM45 °FOvercast.8 mph87%30.27 "HgN/A
2:20 AM45 °FOvercast.8 mph87%30.27 "HgN/A
1:50 AM45 °FOvercast.8 mph93%30.27 "HgN/A
12:50 AM45 °FScattered showers. Passing clouds.7 mph93%30.27 "HgN/A
11:50 PM
Sep 17
45 °FScattered showers. Partly cloudy.9 mph93%30.27 "HgN/A
10:50 PM45 °FPartly cloudy.9 mph100%30.27 "Hg5 mi
10:20 PM45 °FPartly cloudy.8 mph100%30.27 "Hg4 mi
9:50 PM46 °FPartly cloudy.9 mph93%30.27 "Hg2 mi
9:20 PM50 °FPassing clouds.8 mph88%30.27 "HgN/A
8:50 PM52 °FPassing clouds.5 mph82%30.27 "Hg5 mi
8:20 PM52 °FPassing clouds.7 mph82%30.24 "Hg6 mi
7:50 PM52 °FDrizzle. Partly sunny.6 mph82%30.24 "Hg5 mi
7:20 PM52 °FPartly sunny.7 mph82%30.27 "Hg4 mi
6:50 PM52 °FBroken clouds.10 mph82%30.27 "Hg5 mi
6:20 PM52 °FPartly sunny.9 mph82%30.27 "Hg5 mi
5:50 PM52 °FPartly sunny.6 mph82%30.27 "Hg5 mi
5:20 PM50 °FSnow. Broken clouds.9 mph88%30.27 "HgN/A
4:50 PM52 °FPartly sunny.7 mph77%30.24 "HgN/A
4:20 PM52 °FPartly sunny.7 mph77%30.27 "HgN/A
3:20 PM52 °FPartly sunny.9 mph77%30.27 "HgN/A
2:50 PM52 °FPartly sunny.9 mph77%30.27 "HgN/A
1:50 PM52 °FPartly sunny.13 mph77%30.27 "HgN/A
1:04 PM54 °FPartly sunny.9 mph72%30.27 "HgN/A
11:50 AM54 °FBroken clouds.12 mph67%30.27 "HgN/A
10:50 AM50 °FPartly sunny.9 mph88%30.24 "HgN/A
9:50 AM46 °FPartly sunny.5 mph93%30.24 "HgN/A
8:50 AM43 °FBroken clouds.3 mph100%30.24 "HgN/A
7:50 AM37 °FPartly sunny.No wind100%30.24 "HgN/A
6:50 AM37 °FPassing clouds.1 mph93%30.24 "HgN/A
Weather by CustomWeather, © 2014

See weather overviewHow to use our weather pages